Flag for Germany Weather past 2 weeks in Rodgau, Hesse, Germany

Now
74 °F

Passing clouds.


Feels Like: 74 °F
Forecast: 64 / 90 °F
Wind: 2 mph from Northeast

Location: Frankfurt / M-Flughafen

Current Time: Aug 30, 2015 at 1:49:43 AM

Latest Report: Aug 30, 2015 at 1:00 AM


Visibility: 28 mi

Pressure: 30.09 "Hg

Humidity: 77%

Dew point: 66 °F

Location of RodgauLocation

Historic Weather in Rodgau — Graph

°F

Rodgau temperature yesterday

Maximum temperature yesterday: 85 °F (at 6:00 PM)
Minimum temperature yesterday: 56 °F (at 2:00 AM)
Average temperature yesterday: 70 °F

Past Weeks' High & Low Weather Summary

 TemperatureHumidityPressure
High85 °F (Aug 29, 6:00 PM)100% (Aug 29, 6:00 AM)30.29 "Hg (Aug 29, 6:00 AM)
Low50 °F (Aug 19, 6:00 AM)22% (Aug 22, 4:00 PM)29.66 "Hg (Aug 23, 7:00 PM)
Average66 °F70%29.99 "Hg
* Reported Aug 15 1:00 AM — Aug 30 1:00 AM, Rodgau, Weather by CustomWeather, © 2015

Note: Actual official high and low records may vary slightly from our data, if they occured in-between our weather recording intervals... More about our weather records

Advertising

Rodgau weather history for previous 24 hours

 ConditionsComfort  
Time TempWeatherWind HumidityBarometerVisibility
1:00 AM
Sun, Aug 30
74 °FPassing clouds.2 mph77%30.09 "Hg28 mi
10:00 PM
Sat, Aug 29
74 °FPassing clouds.2 mph77%30.10 "Hg31 mi
9:00 PM74 °FPassing clouds.2 mph77%30.09 "Hg31 mi
8:00 PM80 °FScattered clouds.1 mph64%30.08 "Hg31 mi
7:00 PM84 °FPassing clouds.1 mph51%30.08 "Hg31 mi
6:00 PM85 °FPassing clouds.3 mph51%30.09 "Hg31 mi
5:00 PM84 °FScattered clouds.2 mph52%30.11 "Hg28 mi
4:00 PM83 °FScattered clouds.2 mph53%30.13 "Hg25 mi
3:00 PM80 °FScattered clouds.2 mph59%30.15 "Hg25 mi
2:00 PM78 °FPassing clouds.3 mph63%30.17 "Hg25 mi
1:00 PM75 °FScattered clouds.2 mph66%30.18 "Hg22 mi
12:00 PM72 °FScattered clouds.1 mph76%30.20 "Hg22 mi
10:00 AM62 °FPartly sunny.3 mph97%30.21 "Hg7 mi
9:00 AM61 °FLow clouds.3 mph99%30.22 "Hg6 mi
8:00 AM60 °FFog.3 mph100%30.21 "Hg2 mi
7:00 AM59 °FFog.5 mph100%30.20 "Hg2 mi
6:00 AM59 °FFog.3 mph100%30.21 "Hg1 mi
4:00 AM58 °FFog.2 mph95%30.20 "Hg6 mi
3:00 AM58 °FFog.1 mph98%30.21 "Hg17 mi
2:00 AM56 °FFog.1 mph98%30.20 "Hg17 mi
1:00 AM58 °FFog.1 mph98%30.20 "Hg17 mi
Weather by CustomWeather, © 2015

See weather overviewHow to use our weather pages